Location: Nied?wied?
(53.3665°N, 14.8184°E)
Time: 23:25:06
(UTC+00:00)

Cosmos 1378 Rocket - Pass Details

Date: 03 March 2021
Orbit: 601 x 627 km, 82.5° (Epoch: 12 April)

Event Time Altitude Azimuth Distance (km) Brightness Sun altitude
Rises 19:19:49 0° 351° (N) 2,925 7.4 -23.8°
Reaches altitude 10° 19:22:07 10° 357° (N) 2,015 6.5 -24.1°
Enters shadow 19:25:08 38° 23° (NNE) 974 4.5 -24.5°
